This is the latest recevied weather packets stored in our database for station/object YO6SAY-10. If no packets are shown the sender has not sent any weather packets the latest 10 day(s).
| Time | Temp. | Humidity | Pressure | Rain* | Wind** | Luminosity | Snow |
|---|---|---|---|---|---|---|---|
| 1777631374 | 13.33° C | 40% | 956.8 hPa | - | - | - | - |
| 1777630473 | 12.22° C | 42% | 956.9 hPa | - | - | - | - |
| 1777629573 | 11.11° C | 43% | 957 hPa | - | - | - | - |
| 1777628673 | 11.11° C | 43% | 957 hPa | - | - | - | - |
| 1777627773 | 11.11° C | 43% | 957.1 hPa | - | - | - | - |
| 1777626873 | 10° C | 42% | 957.2 hPa | - | - | - | - |
| 1777625973 | 9.44° C | 40% | 957.3 hPa | - | - | - | - |
| 1777625073 | 9.44° C | 42% | 957.3 hPa | - | - | - | - |
| 1777624172 | 9.44° C | 43% | 957.4 hPa | - | - | - | - |
| 1777623272 | 10° C | 45% | 957.4 hPa | - | - | - | - |
| 1777622372 | 10° C | 48% | 957.4 hPa | - | - | - | - |
| 1777621472 | 10.56° C | 52% | 957.5 hPa | - | - | - | - |
| 1777620571 | 11.11° C | 53% | 957.4 hPa | - | - | - | - |
| 1777619671 | 10.56° C | 50% | 957.5 hPa | - | - | - | - |
| 1777618771 | 10° C | 51% | 957.5 hPa | - | - | - | - |
| 1777617871 | 10° C | 51% | 957.3 hPa | - | - | - | - |
| 1777616971 | 10° C | 51% | 957.4 hPa | - | - | - | - |
| 1777616071 | 10° C | 51% | 957.5 hPa | - | - | - | - |
| 1777615170 | 10° C | 51% | 957.6 hPa | - | - | - | - |
| 1777614270 | 9.44° C | 51% | 957.6 hPa | - | - | - | - |
| 1777613370 | 9.44° C | 52% | 957.6 hPa | - | - | - | - |
| 1777612470 | 8.89° C | 52% | 957.5 hPa | - | - | - | - |
| 1777611570 | 8.89° C | 53% | 957.6 hPa | - | - | - | - |
| 1777610670 | 8.33° C | 53% | 957.5 hPa | - | - | - | - |
| 1777609768 | 8.33° C | 53% | 957.4 hPa | - | - | - | - |
* Rain since midnight (hover to see other rain measurements)
** Current wind speed in m/s (hover to see current wind gust speed)